Weather History for KAVL - September, 2014

Change the Weather History Date:

Saturday, September 13, 2014

  Actual Average Record
Temperature  
Mean Temperature 71 °F 67 °F  
Max Temperature 78 °F 78 °F 90 °F (1939)
Min Temperature 64 °F 57 °F 39 °F (1917)
Degree Days  
Heating Degree Days 0 1  
Month to date heating degree days 0 5  
Since 1 July heating degree days 2 7  
Cooling Degree Days 6 3  
Month to date cooling degree days 118 61  
Year to date cooling degree days 870 818  
Growing Degree Days 21 (Base 50)    
Moisture  
Dew Point 66 °F    
Average Humidity 79    
Maximum Humidity 97    
Minimum Humidity 60    
Precipitation  
Precipitation T in 0.13 in 2.63 in (1966)
Month to date precipitation 5.11 1.73  
Year to date precipitation 35.89 33.34  
Snow  
Snow 0.00 in 0.00 in 0.00 in ()
Month to date snowfall 0.0 0.0  
Since 1 July snowfall 0.0 0.0  
Since 1 September snowfall 0.0 0.0  
Snow Depth 0.00 in    
Sea Level Pressure  
Sea Level Pressure 30.11 in    
Wind  
Wind Speed 8 mph (North)    
Max Wind Speed 21 mph    
Max Gust Speed 26 mph    
Visibility 9 miles    
Events Rain    
T = Trace of Precipitation, MM = Missing Value Source: NWS Daily Summary

Daily Weather History Graph

Daily Weather History Graph

Search for Another Location

Airport or City:

Trip Planner

Search our weather history database for the weather conditions in past years. The results will help you decide how hot, cold, wet, or windy it might be!

Date:

Astronomy

Sep. 13, 2014 Rise Set
Actual Time 7:11 AM EDT 7:40 PM EDT
Civil Twilight 6:45 AM EDT 8:05 PM EDT
Nautical Twilight 6:15 AM EDT 8:35 PM EDT
Astronomical Twilight 5:45 AM EDT 9:06 PM EDT
Moon 10:55 PM EDT (9/13) 12:06 PM EDT (9/13)
Length of Visible Light 13h 19m
Length of Day
12h 28m
Waning Gibbous, 74% of the Moon is Illuminated
Sep 13
Waning Gibbous
Sep 15
Last Quarter
Sep 24
New
Oct 1
First Quarter
Oct 8
Full

Hourly Weather History & Observations

Time (EDT) Temp. Dew Point Humidity Pressure Visibility Wind Dir Wind Speed Gust Speed Precip Events Conditions
12:31 AM 71.1 °F 69.1 °F 93% 30.13 in 10.0 mi Calm Calm - N/A   Overcast
12:54 AM 71.1 °F 69.1 °F 93% 30.04 in 10.0 mi SSE 3.5 mph - N/A   Overcast
1:54 AM 71.1 °F 69.1 °F 93% 30.03 in 10.0 mi Calm Calm - N/A   Overcast
2:41 AM 71.1 °F 69.1 °F 93% 30.11 in 10.0 mi Calm Calm - N/A   Overcast
2:52 AM 71.6 °F 68.0 °F 88% 30.11 in 10.0 mi Calm Calm - N/A   Overcast
2:54 AM 71.1 °F 68.0 °F 90% 30.02 in 10.0 mi Calm Calm - N/A   Overcast
3:35 AM 71.1 °F 69.1 °F 93% 30.10 in 10.0 mi Calm Calm - N/A   Overcast
3:54 AM 71.1 °F 68.0 °F 90% 30.01 in 10.0 mi Calm Calm - N/A   Overcast
4:21 AM 71.1 °F 68.0 °F 90% 30.10 in 10.0 mi Calm Calm - N/A   Overcast
4:30 AM 71.1 °F 68.0 °F 90% 30.11 in 10.0 mi Calm Calm - N/A   Overcast
4:41 AM 71.1 °F 68.0 °F 90% 30.11 in 10.0 mi Calm Calm - N/A   Overcast
4:54 AM 71.1 °F 68.0 °F 90% 30.03 in 10.0 mi Calm Calm - N/A   Overcast
5:06 AM 70.0 °F 69.1 °F 97% 30.12 in 10.0 mi South 3.5 mph - N/A   Overcast
5:27 AM 70.0 °F 68.0 °F 93% 30.12 in 10.0 mi SSE 3.5 mph - N/A   Overcast
5:43 AM 70.0 °F 68.0 °F 93% 30.12 in 10.0 mi SSE 3.5 mph - N/A   Overcast
5:54 AM 70.0 °F 68.0 °F 93% 30.04 in 10.0 mi Calm Calm - N/A   Overcast
6:52 AM 69.8 °F 68.0 °F 94% 30.13 in 10.0 mi South 3.5 mph - N/A   Mostly Cloudy
6:54 AM 69.1 °F 68.0 °F 96% 30.06 in 10.0 mi SSE 3.5 mph - N/A   Mostly Cloudy
7:03 AM 69.8 °F 68.0 °F 94% 30.13 in 10.0 mi Calm Calm - N/A   Scattered Clouds
7:26 AM 69.1 °F 68.0 °F 96% 30.14 in 1.0 mi West 3.5 mph - N/A   Mostly Cloudy
7:40 AM 69.1 °F 68.0 °F 96% 30.14 in 1.0 mi Calm Calm - N/A   Overcast
7:54 AM 70.0 °F 68.0 °F 93% 30.07 in 1.0 mi Calm Calm - N/A   Overcast
8:12 AM 70.0 °F 68.0 °F 93% 30.15 in 1.0 mi Calm Calm - N/A   Overcast
8:42 AM 70.0 °F 68.0 °F 93% 30.15 in 1.0 mi Calm Calm - N/A   Overcast
8:54 AM 71.1 °F 68.0 °F 90% 30.08 in 1.0 mi Calm Calm - N/A   Overcast
9:01 AM 71.1 °F 69.1 °F 93% 30.15 in 10.0 mi Calm Calm - N/A   Overcast
9:54 AM 73.0 °F 68.0 °F 84% 30.09 in 10.0 mi Calm Calm - N/A   Overcast
10:45 AM 73.0 °F 66.9 °F 81% 30.17 in 10.0 mi NNW 5.8 mph - N/A   Overcast
10:54 AM 75.0 °F 68.0 °F 79% 30.10 in 10.0 mi North 8.1 mph - N/A   Mostly Cloudy
11:01 AM 75.9 °F 66.9 °F 74% 30.17 in 10.0 mi North 6.9 mph - N/A   Overcast
11:49 AM 75.2 °F 66.2 °F 73% 30.18 in 10.0 mi North 11.5 mph 19.6 mph N/A   Mostly Cloudy
11:54 AM 75.0 °F 66.0 °F 73% 30.11 in 10.0 mi North 12.7 mph - N/A   Mostly Cloudy
12:23 PM 75.9 °F 64.9 °F 69% 30.19 in 10.0 mi North 15.0 mph 20.7 mph N/A   Mostly Cloudy
12:33 PM 75.9 °F 64.0 °F 67% 30.19 in 10.0 mi North 15.0 mph 25.3 mph N/A   Scattered Clouds
12:54 PM 77.0 °F 64.0 °F 64% 30.11 in 10.0 mi North 13.8 mph 21.9 mph N/A   Clear
1:54 PM 75.0 °F 63.0 °F 66% 30.11 in 10.0 mi NNW 15.0 mph 20.7 mph N/A   Scattered Clouds
2:54 PM 77.0 °F 63.0 °F 62% 30.07 in 10.0 mi NNW 17.3 mph - N/A   Scattered Clouds
3:54 PM 75.0 °F 62.1 °F 64% 30.07 in 10.0 mi NNW 19.6 mph - N/A   Partly Cloudy
4:54 PM 73.9 °F 62.1 °F 66% 30.08 in 10.0 mi North 16.1 mph 25.3 mph N/A   Clear
5:54 PM 72.0 °F 62.1 °F 71% 30.10 in 10.0 mi North 13.8 mph - N/A   Clear
6:54 PM 69.1 °F 60.1 °F 73% 30.12 in 10.0 mi North 12.7 mph - N/A   Scattered Clouds
7:54 PM 68.0 °F 60.1 °F 76% 30.13 in 10.0 mi NNW 12.7 mph - N/A   Overcast
8:54 PM 66.9 °F 60.1 °F 79% 30.16 in 10.0 mi North 8.1 mph - N/A   Mostly Cloudy
9:54 PM 66.0 °F 60.1 °F 81% 30.16 in 10.0 mi North 12.7 mph - N/A   Overcast
10:54 PM 64.9 °F 60.1 °F 84% 30.17 in 10.0 mi North 6.9 mph - 0.00 in Rain Light Rain
11:02 PM 64.9 °F 60.1 °F 84% 30.24 in 10.0 mi North 6.9 mph - 0.00 in   Overcast
11:54 PM 64.9 °F 60.1 °F 84% 30.18 in 10.0 mi North 5.8 mph - 0.00 in   Overcast